Tracking 19280 objects as of 14-Nov-2018
HD Live streaming from Space Station
objects crossing your sky now

USA 58

Track USA 58 now!
10-day predictions
USA 58 is classified as:


NORAD ID: 20562
Int'l Code: 1990-031C
Perigee: 695.0 km
Apogee: 709.2 km
Inclination: 89.8 °
Period: 98.7 minutes
Semi major axis: 7073 km
RCS: Unknown
Launch date: April 11, 1990
Source: United States (US)
Launch site: AIR FORCE WESTERN TEST RANGE (AFWTR)
aabbcc
Your satellite tracking list
Your tracking list is empty




NASA's NSSDC Master Catalog

Two Line Element Set (TLE):
1 20562U 90031C   18282.77290668 0.00000000  00000-0  00000-0 0    07
2 20562  89.7989 298.0659 0010000 226.3107 133.6892 14.59441373    01
Source of the keplerian elements: McCants